EHI
0 0 0 0 0 0 0 0 0 0 1 2 3 3 3 2 1 1 4 8 11 12 11 10 12 16 18 20 22 27 29 30 34 35 31 26 21 17 13 9 6 6 5 4
0 0 0 0 0 0 0 0 0 0 2 3 3 3 4 3 1 1 5 10 15 18 19 19 21 24 26 28 30 34 36 34 33 33 30 27 23 19 14 11 9 7 4 3
0 0 0 0 0 0 0 1 1 2 3 3 3 4 5 5 3 4 8 14 21 25 28 30 31 32 34 37 40 43 44 40 36 34 31 27 23 19 15 13 12 10 5 3
0 0 0 0 0 0 0 1 3 4 4 3 3 4 6 6 6 8 12 17 23 28 32 34 35 36 37 38 40 44 45 43 40 37 34 28 22 18 15 15 15 12 7 4
0 0 0 0 0 0 0 1 3 3 3 2 3 4 6 6 7 10 14 19 24 28 32 33 33 35 37 36 36 38 40 40 37 35 32 26 19 14 14 14 14 11 6 4
0 0 0 0 0 0 0 1 3 3 1 1 2 4 5 5 6 8 13 18 22 25 27 29 29 31 33 31 29 29 30 28 25 23 21 17 13 11 11 11 10 7 5 4
0 0 0 1 1 0 1 2 3 2 1 1 3 5 4 4 5 6 8 12 15 17 19 20 21 24 25 22 19 17 17 14 11 9 9 8 9 10 10 8 7 5 5 6
0 0 1 2 2 2 2 3 3 1 1 2 4 4 3 3 3 3 4 6 8 10 10 10 11 14 17 14 10 8 6 5 4 4 3 4 6 9 10 8 5 4 5 6
0 1 2 3 3 3 2 2 2 2 2 3 3 3 3 2 1 0 2 4 4 5 5 4 3 5 8 8 6 3 2 2 4 4 3 2 4 6 7 7 4 3 4 5
0 1 2 3 2 2 1 1 1 2 3 3 3 3 2 2 1 1 2 2 3 3 3 2 0 0 2 3 3 1 1 1 3 4 3 3 3 3 4 4 4 4 5 5
1 2 2 1 1 1 0 0 1 2 2 2 2 1 1 1 2 2 2 2 2 2 3 2 1 1 0 1 1 0 0 0 1 1 2 3 3 1 2 3 3 4 4 4
1 2 2 1 0 0 0 0 0 1 1 1 1 0 0 1 1 1 1 1 1 1 2 2 2 2 1 1 1 1 1 1 0 0 0 1 1 1 1 1 1 1 2 2
0 1 1 0 0 0 0 0 0 0 0 0 0 0 0 0 0 0 0 0 0 0 1 1 1 2 2 2 2 2 2 1 0 0 0 0 0 0 0 0 0 0 0 0
0 0 0 0 0 1 0 0 0 0 0 0 0 0 0 0 0 0 0 0 0 0 0 0 0 1 1 1 1 1 1 1 0 0 0 0 0 0 0 0 0 0 0 0
0 0 0 0 0 0 0 0 0 0 0 0 0 0 0 0 0 0 0 0 0 0 0 0 0 0 0 0 0 0 0 0 0 0 0 0 0 0 0 0 0 0 0 0
0 0 0 0 0 0 0 0 0 0 0 0 0 0 0 0 0 0 0 0 0 0 0 0 0 0 0 0 0 0 0 0 0 0 0 0 0 0 0 0 0 0 0 0
0 0 0 0 0 0 0 0 0 0 0 0 0 0 0 0 0 0 0 0 0 0 0 0 0 0 0 0 0 0 0 0 0 0 0 0 0 0 0 0 0 0 0 0
0 0 0 0 0 0 0 0 0 0 0 0 0 0 0 0 0 0 0 0 0 0 0 0 0 0 0 0 0 0 0 0 0 0 0 0 0 0 0 0 0 0 0 0
0 0 0 0 0 0 0 0 0 0 0 0 0 0 0 0 0 0 0 0 0 0 0 0 0 0 0 0 0 0 0 0 0 0 0 0 0 0 0 0 0 0 0 0
0 0 0 0 0 0 0 0 0 0 0 0 0 0 0 0 0 0 0 0 0 0 0 0 0 0 0 0 0 0 0 0 0 0 0 0 0 0 0 0 0 0 0 0
0 0 0 0 0 0 0 0 0 0 0 0 0 0 0 0 0 0 0 0 0 0 0 0 0 0 0 0 0 0 0 0 0 0 0 0 0 0 0 0 0 0 0 0
0 0 0 0 0 0 0 0 0 0 0 0 0 0 0 0 0 0 0 0 0 0 0 0 0 0 0 0 0 0 0 0 0 0 0 0 0 0 0 0 0 0 0 0
0 0 0 0 0 0 0 0 0 0 0 0 0 0 0 0 0 0 0 0 0 0 0 0 0 0 0 0 0 0 0 0 0 0 0 0 0 0 0 0 0 0 0 0
0 0 0 0 0 0 0 0 0 0 0 0 0 0 0 0 0 0 0 0 0 0 0 0 0 0 0 0 0 0 0 0 0 0 0 0 0 0 0 0 0 0 0 0
0 0 0 0 0 0 0 0 0 0 0 0 0 0 0 0 0 0 0 0 0 0 0 0 0 0 0 0 0 0 0 0 0 0 0 0 0 0 0 0 0 0 0 0
0 0 0 0 0 0 0 0 0 0 0 0 0 0 0 0 0 0 0 0 0 0 0 0 0 0 0 0 0 0 0 0 0 0 0 0 0 0 0 0 0 0 0 0
0 0 0 0 0 0 0 0 0 0 0 0 0 0 0 0 0 0 0 0 0 0 0 0 0 0 0 0 0 0 0 0 0 0 0 0 0 0 0 0 0 0 0 0
Wind_Speed
9 5 6 8 9 10 11 12 12 10 8 5 3 3 3 2 3 7 9 12 13 13 13 13 13 13 13 12 12 12 13 13 13 12 12 11 11 11 11 10 10 10 10 10
9 8 8 10 10 10 11 12 12 12 9 3 3 3 3 2 2 4 6 9 11 12 12 12 12 12 12 12 11 11 12 12 12 11 11 11 11 11 10 10 10 10 10 11
9 7 9 12 9 10 10 9 9 10 4 2 2 3 4 3 2 1 2 4 7 9 10 10 10 11 11 11 11 12 12 12 12 12 12 11 11 11 10 10 10 10 11 11
8 7 11 1 3 3 7 6 5 5 3 2 2 2 4 4 3 3 2 1 2 4 6 7 7 8 8 9 11 11 11 11 11 11 11 10 10 10 10 9 9 9 10 11
7 10 9 4 3 3 5 4 1 2 0 1 3 4 6 7 6 5 4 3 2 1 3 4 5 6 7 8 8 9 9 9 10 10 10 10 10 10 9 9 9 9 10 10
7 8 7 2 5 1 4 4 4 1 1 2 3 3 6 7 6 6 6 5 5 5 6 5 4 5 6 6 6 6 6 6 7 7 8 9 9 8 8 8 9 9 9 10
8 7 4 6 4 4 5 3 4 2 2 2 3 6 6 6 7 8 8 9 8 8 8 7 6 6 6 5 3 2 3 4 5 5 6 6 6 6 6 7 7 8 9 9
6 7 2 6 3 2 4 5 3 4 4 7 9 9 8 8 8 9 10 11 10 9 9 8 7 6 7 5 3 3 3 3 3 3 3 3 4 4 5 6 7 8 8 9
2 2 6 2 3 4 2 4 4 5 8 9 10 10 10 9 9 9 10 10 9 10 11 10 8 7 8 6 4 3 3 2 2 2 1 2 3 4 5 5 6 6 6 7
3 2 3 3 2 2 3 5 6 8 9 10 11 11 10 9 9 9 9 9 9 10 10 9 8 8 7 5 4 4 4 3 2 1 1 1 2 3 4 4 5 6 6 7
4 1 2 4 3 3 6 8 10 11 11 11 12 11 10 9 8 8 8 8 9 9 9 9 9 8 8 6 5 5 4 3 2 2 1 1 1 2 3 3 3 5 7 7
4 4 3 4 3 6 9 10 11 12 12 11 11 11 10 9 8 8 8 7 8 9 9 9 9 9 8 7 6 5 4 3 2 2 2 2 2 2 2 4 3 5 7 8
3 4 4 5 6 8 10 12 12 13 12 11 10 9 9 8 7 7 7 7 8 7 8 7 7 7 7 6 6 5 5 4 4 4 3 3 4 4 4 4 7 9 10 10
3 4 6 8 10 11 13 14 14 13 12 11 9 8 7 7 7 7 6 6 6 6 6 6 6 6 5 5 4 4 4 3 3 3 4 4 4 5 6 7 7 6 6 9
5 6 9 11 12 12 12 13 13 12 10 9 8 7 6 5 5 5 5 4 4 4 4 4 5 5 4 4 4 4 4 4 4 5 5 5 6 6 6 7 8 8 8 6
8 11 13 13 13 12 12 13 12 10 8 7 6 5 4 3 3 3 3 2 2 3 4 4 4 4 4 4 4 3 3 2 4 6 6 6 6 7 7 8 8 9 9 9
10 11 12 12 12 11 11 10 9 8 6 4 3 2 1 1 0 1 1 2 2 2 2 2 3 4 4 4 6 6 6 4 4 6 6 6 7 8 8 8 9 9 9 8
10 10 11 11 10 10 9 8 7 6 3 1 1 2 3 2 3 2 3 3 2 2 1 2 3 4 4 4 5 7 7 7 7 7 7 7 8 9 9 9 10 11 10 9
12 12 11 10 8 7 6 5 4 2 1 1 2 2 3 3 4 4 4 4 4 3 2 3 3 5 5 5 6 7 8 8 8 8 7 7 8 9 9 9 10 10 10 10
11 10 9 8 6 5 4 3 2 1 2 2 3 3 3 4 4 4 4 4 3 5 5 5 5 5 6 5 7 8 8 8 9 8 8 8 8 9 9 10 10 10 10 10
8 7 6 5 3 2 2 2 2 2 2 3 3 4 4 4 4 4 5 4 3 4 4 3 4 5 6 7 8 8 8 8 8 8 8 8 8 9 9 10 10 9 9 9
5 4 3 2 1 2 2 2 2 3 3 3 4 4 4 5 5 4 3 3 3 3 5 4 4 7 8 11 8 8 8 8 8 7 7 8 8 8 9 9 9 9 9 9
3 3 3 3 3 2 2 2 2 3 3 4 4 4 5 5 5 5 5 3 4 4 4 5 6 6 10 8 7 7 7 7 7 7 7 7 8 8 8 9 8 8 9 9
2 2 3 3 3 3 3 3 4 3 4 4 4 4 5 5 4 4 4 3 3 4 4 4 3 6 9 6 6 6 6 6 7 7 7 7 7 7 7 8 8 8 8 10
2 3 3 4 4 3 3 4 5 5 5 4 4 4 4 4 5 4 4 3 2 4 3 1 0 5 6 5 5 6 6 6 7 8 7 7 7 7 7 7 8 8 8 8
3 4 3 4 4 4 5 4 5 5 5 4 4 4 4 4 4 3 3 3 4 4 5 4 4 4 5 5 5 6 6 5 5 6 7 7 8 7 7 8 10 8 8 8
4 4 3 4 3 4 5 5 5 5 5 5 5 5 5 5 4 4 4 4 4 4 4 4 5 5 5 5 5 5 5 6 6 6 6 6 6 7 7 9 7 7 8 8
Wind_Direction
259 258 257 253 238 224 236 258 274 283 286 304 349 357 338 284 225 207 197 196 197 197 196 197 198 199 201 201 199 197 195 198 198 196 195 195 195 196 198 203 208 211 217 221
245 241 248 253 250 244 242 254 263 272 281 347 30 20 9 344 253 220 209 206 203 203 201 200 202 201 200 200 195 192 195 199 195 190 190 193 194 196 199 204 212 213 219 224
248 229 243 243 242 246 244 249 265 274 297 41 1 21 21 11 353 278 236 223 211 206 205 204 203 202 200 197 191 190 195 196 190 190 191 193 194 197 201 205 209 216 222 227
249 232 243 251 55 278 264 264 270 279 309 341 25 64 59 37 23 16 0 287 211 201 194 195 196 196 194 192 189 190 193 194 191 190 191 190 196 201 205 209 214 220 226 231
244 241 247 203 178 238 255 261 352 297 349 109 124 144 96 53 39 36 32 36 61 111 143 148 160 168 171 178 182 187 192 192 192 190 190 191 198 204 206 212 219 223 227 233
233 255 256 120 107 108 257 217 94 85 131 155 204 223 80 47 44 48 50 57 65 73 80 90 104 128 143 152 166 182 185 185 185 188 193 197 202 207 209 217 227 233 233 234
238 249 260 84 121 200 248 68 85 88 117 132 66 54 78 66 59 59 60 63 67 71 72 71 80 102 111 113 127 151 162 166 172 182 199 205 205 207 214 221 231 240 245 243
231 240 211 106 172 278 46 86 101 101 109 104 101 101 95 83 73 69 69 68 69 72 71 67 68 82 88 83 81 97 117 139 153 170 203 203 206 213 220 232 235 238 244 252
288 35 68 67 43 58 100 124 120 118 117 118 115 109 100 91 81 73 70 68 67 71 69 61 58 62 68 58 57 72 89 102 117 137 174 221 223 223 226 227 248 253 253 257
267 84 72 73 69 117 130 124 119 117 119 118 114 109 101 93 86 78 71 71 71 71 70 64 57 57 58 52 53 70 75 72 83 109 157 187 243 248 256 256 259 268 272 274
255 34 90 72 55 105 122 121 117 113 112 112 112 107 104 97 87 82 78 75 74 76 76 72 67 61 53 50 52 61 65 63 62 72 56 281 260 296 288 300 318 296 296 295
342 24 355 44 67 123 129 126 121 118 114 110 107 106 102 96 90 86 82 79 75 72 71 68 66 61 54 49 48 47 49 39 27 17 12 325 314 288 220 252 257 250 257 272
344 7 49 89 101 117 121 119 118 116 113 110 103 103 101 97 93 90 87 84 81 78 76 71 66 61 51 47 46 42 34 21 6 1 354 338 329 317 308 266 233 238 241 242
70 105 104 105 107 109 112 112 109 105 102 102 103 102 99 96 93 86 80 79 84 84 79 74 66 59 48 43 35 24 14 29 351 345 339 331 325 315 310 310 307 297 256 232
73 97 111 111 110 110 112 112 107 102 98 94 90 86 81 80 82 83 83 82 83 80 70 59 52 45 30 19 13 0 349 352 350 335 320 319 317 311 308 308 305 305 306 290
96 104 110 112 112 114 114 110 105 99 93 90 83 72 61 54 62 73 79 69 48 45 40 32 29 22 11 357 342 324 321 323 304 310 311 313 311 310 309 307 304 302 302 307
114 115 117 116 111 107 104 102 97 91 83 74 73 72 59 18 25 58 42 36 15 358 354 0 2 356 343 336 324 319 322 319 281 292 307 316 315 310 308 304 302 303 304 312
98 102 106 107 107 106 107 105 101 97 86 51 4 354 338 333 335 351 343 334 313 303 341 353 354 327 320 328 322 314 312 314 316 317 317 315 315 308 304 303 305 305 306 306
93 96 97 98 101 103 105 106 107 105 99 334 327 324 319 323 326 322 319 309 303 309 5 6 345 304 318 343 324 296 302 310 312 312 310 310 297 301 307 310 309 308 309 310
89 89 91 91 89 88 81 62 45 26 350 329 321 315 318 328 326 318 313 305 346 1 357 348 320 320 324 342 322 306 309 312 312 314 314 313 314 313 311 311 311 313 313 312
94 94 93 86 77 67 56 20 341 330 336 333 325 318 322 326 321 314 305 313 35 13 333 299 301 335 339 337 301 304 315 319 317 316 316 315 314 313 314 316 316 316 314 314
89 84 76 68 44 15 10 346 333 329 335 334 329 324 315 310 309 305 305 321 348 13 314 323 358 16 345 316 309 319 321 320 319 320 321 320 318 317 317 318 319 319 318 317
63 45 19 5 358 355 353 338 336 334 329 325 324 319 316 319 317 312 313 353 347 6 323 357 17 354 319 306 319 323 325 327 325 324 324 325 323 320 319 321 321 320 319 319
37 13 352 342 332 325 327 330 329 322 311 299 300 307 305 301 304 319 344 49 20 332 332 36 3 325 302 309 328 332 334 333 331 332 331 328 325 323 324 324 322 323 323 323
359 338 335 322 310 318 318 303 294 290 291 299 305 309 311 324 328 337 338 346 13 307 316 52 267 311 314 343 345 342 345 355 349 338 334 333 333 333 333 333 333 328 328 330
336 319 330 315 317 312 307 309 310 313 312 312 319 330 332 332 327 321 314 324 343 339 331 343 356 340 353 359 358 356 359 357 349 348 350 343 341 343 342 341 338 338 336 337
298 293 284 290 303 313 314 313 311 314 321 330 331 326 324 325 328 334 335 336 342 347 354 3 9 9 11 9 7 10 11 8 4 360 355 352 350 350 348 345 343 341 338 339